Home > Weather > Nanning > Past weeks

Flag for China Past Weather in Nanning, Guangxi, China — Yesterday and Last 2 Weeks

Now
81 °F

Sprinkles. Broken clouds.


Feels Like: 86 °F
Forecast: 75 / 97 °F
Wind: 1 mph from North

Location: Nanning Airport

Current Time: Jul 29, 2016 at 12:11:15 PM

Latest Report: Jul 29, 2016 at 11:00 AM


Visibility: N/A

Pressure: 29.86 "Hg

Humidity: 84%

Dew Point: 75 °F

Location of NanningLocation

Past Weather in Nanning — Graph

°F

Nanning Temperature Yesterday

Maximum temperature yesterday: 82 °F (at 12:00 PM)
Minimum temperature yesterday: 73 °F (at 2:00 PM)
Average temperature yesterday: 78 °F

High & Low Weather Summary for the Past Weeks

 TemperatureHumidityPressure
High99 °F (Jul 26, 4:00 PM)100% (Jul 28, 3:00 PM)29.86 "Hg (Jul 28, 3:00 PM)
Low73 °F (Jul 28, 2:00 PM)39% (Jul 26, 4:00 PM)29.56 "Hg (Jul 18, 5:00 PM)
Average84 °F77%29.73 "Hg
* Reported Jul 14 11:00 AM — Jul 29 11:00 AM, Nanning, Weather by CustomWeather, © 2016

Note: Actual official high and low records may vary slightly from our data, if they occured in-between our weather recording intervals... More about our weather records

Advertising

Nanning Weather History for the Previous 24 Hours

Scroll right to see more
 ConditionsComfort  
Time TempWeatherWind HumidityBarometerVisibility
11:00 AM
Fri, Jul 29
81 °FSprinkles. Broken clouds.1 mph84%29.86 "HgN/A
10:00 AM81 °FScattered clouds.1 mph84%29.86 "HgN/A
9:00 AM79 °FScattered clouds.3 mph89%29.86 "Hg4 mi
8:00 AM77 °FFog.3 mph89%29.83 "Hg3 mi
7:00 AM75 °FScattered clouds.1 mph94%29.83 "Hg4 mi
6:00 AM75 °FPassing clouds.3 mph94%29.80 "Hg4 mi
5:00 AM75 °FPassing clouds.1 mph94%29.80 "HgN/A
4:00 AM75 °FPassing clouds.3 mph94%29.80 "HgN/A
3:00 AM75 °FLight rain. Passing clouds.1 mph94%29.80 "HgN/A
2:00 AM75 °FLight rain. Passing clouds.3 mph89%29.83 "HgN/A
1:00 AM75 °FSprinkles. Passing clouds.3 mph94%29.83 "HgN/A
12:00 AM75 °FPassing clouds.1 mph94%29.86 "HgN/A
11:00 PM
Thu, Jul 28
75 °FPassing clouds.3 mph94%29.86 "HgN/A
10:00 PM75 °FPassing clouds.6 mph94%29.83 "HgN/A
9:00 PM75 °FLight rain. Partly cloudy.6 mph94%29.86 "HgN/A
8:00 PM75 °FSprinkles. Passing clouds.1 mph94%29.83 "HgN/A
7:00 PM75 °FSprinkles. Partly sunny.1 mph94%29.80 "HgN/A
6:00 PM75 °FScattered clouds.8 mph94%29.80 "HgN/A
5:00 PM75 °FSprinkles. Scattered clouds.6 mph94%29.80 "HgN/A
4:00 PM75 °FSprinkles. Passing clouds.3 mph94%29.80 "HgN/A
3:00 PM73 °FThunderstorms. Partly sunny.1 mph100%29.83 "HgN/A
2:00 PM73 °FStrong thunderstorms. Broken clouds.13 mph94%29.83 "Hg1 mi
1:00 PM82 °FThunderstorms. Broken clouds.8 mph79%29.77 "HgN/A
12:00 PM82 °FBroken clouds.10 mph79%29.80 "HgN/A
Weather by CustomWeather, © 2016

See weather overviewHow to use our weather pages